Weather History for KMCB - February, 2014

Change the Weather History Date:

Sunday, February 16, 2014

  Actual Average Record
Temperature  
Mean Temperature 53 °F -  
Max Temperature 71 °F 63 °F 79 °F (1976)
Min Temperature 35 °F 41 °F 20 °F (1977)
Degree Days  
Heating Degree Days 12    
Growing Degree Days 3 (Base 50)    
Moisture  
Dew Point 44 °F    
Average Humidity 72    
Maximum Humidity 93    
Minimum Humidity 41    
Precipitation  
Precipitation 0.00 in - - ()
Sea Level Pressure  
Sea Level Pressure 30.13 in    
Wind  
Wind Speed 2 mph (South)    
Max Wind Speed 10 mph    
Max Gust Speed -    
Visibility 10 miles    
Events      
Averages and records for this station are not official NWS values.
T = Trace of Precipitation, MM = Missing Value Source: NWS Daily Summary

Daily Weather History Graph

Daily Weather History Graph

Search for Another Location

Airport or City:

Trip Planner

Search our weather history database for the weather conditions in past years. The results will help you decide how hot, cold, wet, or windy it might be!

Date:

Astronomy

Feb. 16, 2014 Rise Set
Actual Time 6:42 AM CST 5:50 PM CST
Civil Twilight 6:17 AM CST 6:14 PM CST
Nautical Twilight 5:49 AM CST 6:43 PM CST
Astronomical Twilight 5:20 AM CST 7:11 PM CST
Moon 7:36 PM CST (2/16) 7:20 AM CST (2/16)
Length of Visible Light 11h 57m
Length of Day
11h 08m
Full, 97% of the Moon is Illuminated
Feb 16
Full
Feb 22
Last Quarter
Mar 1
New
Mar 8
First Quarter
Mar 16
Full

Hourly Weather History & Observations

Time (CST) Temp. Dew Point Humidity Pressure Visibility Wind Dir Wind Speed Gust Speed Precip Events Conditions
12:53 AM 45.0 °F 33.1 °F 63% 30.13 in 10.0 mi Calm Calm - N/A   Clear
1:53 AM 41.0 °F 34.0 °F 76% 30.14 in 10.0 mi Calm Calm - N/A   Clear
2:53 AM 37.0 °F 33.1 °F 86% 30.14 in 10.0 mi Calm Calm - N/A   Clear
3:53 AM 37.9 °F 33.1 °F 83% 30.14 in 10.0 mi Calm Calm - N/A   Clear
4:53 AM 35.1 °F 33.1 °F 92% 30.14 in 10.0 mi Calm Calm - N/A   Clear
5:53 AM 35.1 °F 32.0 °F 89% 30.15 in 10.0 mi Calm Calm - N/A   Clear
6:53 AM 35.1 °F 32.0 °F 89% 30.16 in 10.0 mi Calm Calm - N/A   Clear
7:53 AM 39.9 °F 37.0 °F 89% 30.17 in 8.0 mi Calm Calm - N/A   Clear
8:53 AM 52.0 °F 44.1 °F 74% 30.17 in 10.0 mi Calm Calm - N/A   Clear
9:53 AM 60.1 °F 46.9 °F 62% 30.17 in 10.0 mi SW 6.9 mph - N/A   Clear
10:53 AM 64.0 °F 50.0 °F 60% 30.17 in 10.0 mi Variable 4.6 mph - N/A   Clear
11:53 AM 68.0 °F 48.0 °F 49% 30.15 in 10.0 mi NW 5.8 mph - N/A   Clear
12:53 PM 69.1 °F 46.0 °F 44% 30.12 in 10.0 mi ENE 3.5 mph - N/A   Clear
1:53 PM 71.1 °F 46.0 °F 41% 30.08 in 10.0 mi South 10.4 mph - N/A   Clear
2:53 PM 69.1 °F 50.0 °F 51% 30.08 in 10.0 mi WSW 8.1 mph - N/A   Scattered Clouds
3:53 PM 70.0 °F 51.1 °F 51% 30.10 in 10.0 mi South 6.9 mph - N/A   Mostly Cloudy
4:53 PM 68.0 °F 51.1 °F 55% 30.10 in 10.0 mi SW 3.5 mph - N/A   Overcast
5:53 PM 66.0 °F 52.0 °F 60% 30.12 in 10.0 mi SSW 4.6 mph - N/A   Overcast
6:53 PM 62.1 °F 52.0 °F 70% 30.11 in 10.0 mi South 5.8 mph - N/A   Mostly Cloudy
7:53 PM 59.0 °F 52.0 °F 78% 30.12 in 10.0 mi Calm Calm - N/A   Clear
8:53 PM 55.0 °F 52.0 °F 89% 30.12 in 10.0 mi SSE 3.5 mph - N/A   Overcast
9:53 PM 55.9 °F 51.1 °F 84% 30.11 in 10.0 mi South 5.8 mph - N/A   Clear
10:53 PM 53.1 °F 50.0 °F 89% 30.09 in 10.0 mi South 5.8 mph - N/A   Clear
11:53 PM 52.0 °F 50.0 °F 93% 30.09 in 10.0 mi South 4.6 mph - N/A   Clear